Miscellaneous Local Product
Issued by NWS Hastings, NE

Home | Current Version | Previous Version | Graphics & Text | Print | Product List | Glossary On
Versions: 1 2 3 4 5 6 7 8 9 10 11 12 13 14 15 16 17 18 19 20 21 22 23 24 25 26 27 28 29 30 31 32 33 34 35 36 37 38 39 40 41 42 43 44 45 46 47 48 49 50
000
AXUS43 KGID 271202
MISGRI

GID CWA HOURLY WEATHER ROUNDUP
NATIONAL WEATHER SERVICE HASTINGS NE
600 AM CST FRI FEB 27 2015

NOTE: "FAIR" INDICATES FEW OR NO CLOUDS BELOW 12,000 FEET WITH NO
SIGNIFICANT WEATHER AND/OR OBSTRUCTIONS TO VISIBILITY.

...SOUTH CENTRAL NEBRASKA...

CITY           SKY/WX    TMP DP  RH WIND       PRES   REMARKS
GRAND ISLAND   CLEAR     -2  -8  76 CALM      30.52S
HASTINGS       FAIR      -3  -7  82 W6        30.50R WCI -15
KEARNEY        CLEAR     -4  -9  77 CALM      30.48S
ORD            CLEAR     -9 -15  75 CALM      30.47S
YORK             N/A     -2  -8  78 CALM      30.54S
AURORA         CLEAR     -3  -8  81 NE3       30.52S
LEXINGTON      CLEAR     -4  -8  81 N3        30.45S
HOLDREGE       CLEAR      1  -6  75 CALM      30.47S
HEBRON         FAIR      -1  -6  79 CALM      30.57R

...NEBRASKA PANHANDLE...

CITY           SKY/WX    TMP DP  RH WIND       PRES   REMARKS
CHADRON        CLEAR     -4 -10  75 SE3       30.26F
ALLIANCE       CLEAR      3  -2  79 S12       30.21F WCI -13
SCOTTSBLUFF    CLOUDY     7  -1  70 SE14      30.20F WCI -10
SIDNEY         MOCLDY     4   0  83 SE13      30.18F WCI -13

...WESTERN AND NORTH CENTRAL NEBRASKA...

CITY           SKY/WX    TMP DP  RH WIND       PRES   REMARKS
VALENTINE      CLEAR     -6 -10  83 SW5       30.39S WCI -17
AINSWORTH      CLEAR     -5 -10  79 SW3       30.39F
ONEILL         CLEAR     -5  -9  81 SW5       30.48S WCI -16
BROKEN BOW     CLEAR     -7 -13  75 CALM      30.44R
IMPERIAL       MOCLDY     5  -3  69 SE12      30.33S WCI -11
NORTH PLATTE   CLEAR     -4  -9  79 CALM      30.41R
MCCOOK         CLOUDY     9  -2  61 SE10      30.42S WCI  -5

...EASTERN NEBRASKA...

CITY           SKY/WX    TMP DP  RH WIND       PRES   REMARKS
NORFOLK        CLEAR     -6 -11  79 W3        30.54R
SO SIOUX CITY  CLEAR     -7 -12  79 W3        30.59R
TEKAMAH        CLEAR     -3  -9  75 N5        30.61R WCI -13
COLUMBUS       CLEAR     -8 -20  54 CALM      30.56R
ALBION         CLEAR     -9 -15  74 CALM      30.51S
OMAHA EPPLEY   CLEAR     -1  -5  82 CALM      30.61R
OFFUTT AFB     CLEAR     -2  -7  78 NW5       30.60R WCI -12
MILLARD        CLEAR      0  -6  76 NW5       30.60S WCI -10
LINCOLN        CLEAR     -4  -9  79 S3        30.60R
NEBRASKA CITY  CLEAR     -1  -8  72 NW5       30.59R WCI -12
BEATRICE       CLEAR     -4  -8  81 CALM      30.57R
FALLS CITY     CLEAR     -4  -9  79 NW5       30.61R WCI -15

...NORTHERN KANSAS...

CITY           SKY/WX    TMP DP  RH WIND       PRES   REMARKS
GOODLAND       LGT SNOW  10   7  87 SE13      30.27S FOG     WCI  -5
HILL CITY      CLOUDY     8  -1  66 E6        30.47F WCI  -2
NORTON         PTSUNNY    9   0  66 E6        30.45S WCI  -1
PHILLIPSBURG   CLOUDY    10   1  67 CALM      30.52S
HAYS           MOCLDY     9  -8  47 E9        30.48S WCI  -5
RUSSELL        MOCLDY     8   2  76 E5        30.50R WCI   0
CONCORDIA      PTCLDY     4   0  83 CALM      30.56R
SALINA         PTCLDY     9   0  67 CALM      30.58S
TOPEKA         CLEAR      5  -2  72 CALM      30.63R



USA.gov is the U.S. government's official web portal to all federal, state and local government web resources and services.